| time (UTC) | temp F | wind direction | speed MPH | gust MPH | rain 1hr in | rain 24hr in | rain mn in | humidity % | barometer mb |
| 20260903085430 | 76 | 97 | 0.0 | 1.0 | 0.00 | 0.00 | 0.00 | 38 | 1010.7 |
| 20260903084930 | 76 | 97 | 0.0 | 2.0 | 0.00 | 0.00 | 0.00 | 38 | 1010.6 |
| 20260903084430 | 76 | 103 | 0.0 | 2.0 | 0.00 | 0.00 | 0.00 | 38 | 1010.7 |
| 20260903083929 | 76 | 162 | 1.0 | 3.0 | 0.00 | 0.00 | 0.00 | 38 | 1010.7 |
| 20260903083430 | 76 | 175 | 1.0 | 3.0 | 0.00 | 0.00 | 0.00 | 39 | 1010.7 |
| 20260903082930 | 76 | 139 | 1.0 | 2.0 | 0.00 | 0.00 | 0.00 | 39 | 1010.7 |
| 20260903082427 | 76 | 190 | 0.0 | 2.0 | 0.00 | 0.00 | 0.00 | 39 | 1010.8 |
| 20260903081928 | 77 | 217 | 0.0 | 2.0 | 0.00 | 0.00 | 0.00 | 39 | 1010.8 |
| 20260903081655 | 77 | 117 | 0.0 | 2.0 | 0.00 | 0.00 | 0.00 | 38 | 1010.8 |
| 20260903080926 | 77 | 160 | 0.0 | 1.0 | 0.00 | 0.00 | 0.00 | 38 | 1010.9 |
| 20260903080425 | 77 | 161 | 0.0 | 2.0 | 0.00 | 0.00 | 0.00 | 38 | 1010.9 |
| 20260903075924 | 77 | 160 | 0.0 | 2.0 | 0.00 | 0.00 | 0.00 | 39 | 1010.9 |
| 20260903075425 | 77 | 186 | 1.0 | 2.0 | 0.00 | 0.00 | 0.00 | 39 | 1010.9 |
| 20260903074925 | 77 | 134 | 1.0 | 2.0 | 0.00 | 0.00 | 0.00 | 39 | 1010.9 |
| 20260903074424 | 77 | 156 | 0.0 | 2.0 | 0.00 | 0.00 | 0.00 | 40 | 1010.9 |
| 20260903074146 | 77 | 160 | 0.0 | 1.0 | 0.00 | 0.00 | 0.00 | 39 | 1010.8 |
| 20260903073422 | 77 | 153 | 0.0 | 2.0 | 0.00 | 0.00 | 0.00 | 39 | 1010.9 |
| 20260903072922 | 77 | 182 | 1.0 | 2.0 | 0.00 | 0.00 | 0.00 | 40 | 1010.9 |
| 20260903072422 | 77 | 189 | 1.0 | 2.0 | 0.00 | 0.00 | 0.00 | 40 | 1010.8 |
| 20260903071917 | 78 | 168 | 0.0 | 2.0 | 0.00 | 0.00 | 0.00 | 40 | 1010.8 |
| 20260903071643 | 78 | 233 | 1.0 | 2.0 | 0.00 | 0.00 | 0.00 | 40 | 1010.8 |
| 20260903071145 | 78 | 203 | 0.0 | 2.0 | 0.00 | 0.00 | 0.00 | 39 | 1010.8 |
| 20260903070418 | 78 | 215 | 0.0 | 2.0 | 0.00 | 0.00 | 0.00 | 39 | 1010.9 |
| 20260903065918 | 78 | 157 | 0.0 | 2.0 | 0.00 | 0.00 | 0.00 | 38 | 1011.0 |
| 20260903065417 | 79 | 220 | 0.0 | 2.0 | 0.00 | 0.00 | 0.00 | 39 | 1011.0 |
| 20260903065138 | 79 | 191 | 0.0 | 1.0 | 0.00 | 0.00 | 0.00 | 39 | 1010.9 |
| 20260903064418 | 79 | 153 | 0.0 | 1.0 | 0.00 | 0.00 | 0.00 | 39 | 1010.8 |
| 20260903064147 | 80 | 164 | 0.0 | 2.0 | 0.00 | 0.00 | 0.00 | 38 | 1010.8 |
| 20260903063414 | 80 | 200 | 1.0 | 3.0 | 0.00 | 0.00 | 0.00 | 37 | 1010.8 |
| 20260903062914 | 80 | 116 | 1.0 | 3.0 | 0.00 | 0.00 | 0.00 | 36 | 1010.8 |
| 20260903062415 | 80 | 124 | 1.0 | 3.0 | 0.00 | 0.00 | 0.00 | 36 | 1010.8 |
| 20260903061914 | 80 | 134 | 1.0 | 3.0 | 0.00 | 0.00 | 0.00 | 36 | 1010.7 |
| 20260903061415 | 81 | 103 | 1.0 | 3.0 | 0.00 | 0.00 | 0.00 | 36 | 1010.8 |
| 20260903060915 | 81 | 102 | 1.0 | 3.0 | 0.00 | 0.00 | 0.00 | 36 | 1010.8 |
| 20260903060415 | 81 | 203 | 1.0 | 3.0 | 0.00 | 0.00 | 0.00 | 36 | 1010.8 |
| 20260903055916 | 81 | 214 | 1.0 | 3.0 | 0.00 | 0.00 | 0.00 | 36 | 1010.9 |
| 20260903055416 | 81 | 232 | 0.0 | 2.0 | 0.00 | 0.00 | 0.00 | 36 | 1010.8 |
| 20260903055135 | 81 | 166 | 0.0 | 1.0 | 0.00 | 0.00 | 0.00 | 34 | 1010.8 |
| 20260903054411 | 81 | 172 | 0.0 | 1.0 | 0.00 | 0.00 | 0.00 | 34 | 1010.8 |
| 20260903053912 | 82 | 126 | 0.0 | 2.0 | 0.00 | 0.00 | 0.00 | 34 | 1011.0 |
| 20260903053410 | 82 | 108 | 0.0 | 2.0 | 0.00 | 0.00 | 0.00 | 33 | 1010.9 |
| 20260903052909 | 82 | 94 | 0.0 | 1.0 | 0.00 | 0.00 | 0.00 | 33 | 1011.0 |
| 20260903052412 | 83 | 113 | 0.0 | 1.0 | 0.00 | 0.00 | 0.00 | 33 | 1011.0 |
| 20260903051410 | 83 | 124 | 1.0 | 4.0 | 0.00 | 0.00 | 0.00 | 33 | 1010.9 |
| 20260903050911 | 83 | 139 | 1.0 | 4.0 | 0.00 | 0.00 | 0.00 | 34 | 1010.8 |
| 20260903050406 | 83 | 155 | 1.0 | 3.0 | 0.00 | 0.00 | 0.00 | 34 | 1010.8 |
| 20260903045406 | 84 | 179 | 1.0 | 4.0 | 0.00 | 0.00 | 0.00 | 33 | 1010.8 |
| 20260903044906 | 84 | 160 | 1.0 | 3.0 | 0.00 | 0.00 | 0.00 | 31 | 1010.8 |
| 20260903044406 | 85 | 128 | 1.0 | 4.0 | 0.00 | 0.00 | 0.00 | 31 | 1010.8 |
| 20260903043907 | 85 | 108 | 1.0 | 4.0 | 0.00 | 0.00 | 0.00 | 31 | 1010.7 |
| 20260903043636 | 85 | 99 | 1.0 | 4.0 | 0.00 | 0.00 | 0.00 | 30 | 1010.7 |
| 20260903042907 | 85 | 124 | 1.0 | 4.0 | 0.00 | 0.00 | 0.00 | 30 | 1010.6 |
| 20260903042406 | 86 | 111 | 0.0 | 2.0 | 0.00 | 0.00 | 0.00 | 29 | 1010.6 |
| 20260903042137 | 86 | 58 | 1.0 | 5.0 | 0.00 | 0.00 | 0.00 | 28 | 1010.4 |
| 20260903041634 | 87 | 58 | 2.0 | 5.0 | 0.00 | 0.00 | 0.00 | 26 | 1010.4 |
| 20260903041129 | 87 | 76 | 2.0 | 5.0 | 0.00 | 0.00 | 0.00 | 26 | 1010.4 |
| 20260903040631 | 87 | 80 | 1.0 | 5.0 | 0.00 | 0.00 | 0.00 | 23 | 1010.4 |
| 20260903035906 | 88 | 77 | 0.0 | 2.0 | 0.00 | 0.00 | 0.00 | 24 | 1010.2 |
| 20260903035405 | 89 | 62 | 0.0 | 2.0 | 0.00 | 0.00 | 0.00 | 23 | 1010.1 |
| 20260903034906 | 89 | 58 | 1.0 | 2.0 | 0.00 | 0.00 | 0.00 | 22 | 1010.0 |
| 20260903034405 | 89 | 58 | 0.0 | 2.0 | 0.00 | 0.00 | 0.00 | 22 | 1009.9 |
| 20260903033904 | 89 | 79 | 0.0 | 2.0 | 0.00 | 0.00 | 0.00 | 21 | 1009.9 |
| 20260903033404 | 90 | 67 | 1.0 | 2.0 | 0.00 | 0.00 | 0.00 | 20 | 1009.8 |
| 20260903032904 | 90 | 77 | 1.0 | 4.0 | 0.00 | 0.00 | 0.00 | 18 | 1009.8 |
| 20260903032402 | 90 | 48 | 1.0 | 5.0 | 0.00 | 0.00 | 0.00 | 17 | 1009.8 |
| 20260903031906 | 90 | 52 | 1.0 | 5.0 | 0.00 | 0.00 | 0.00 | 16 | 1009.6 |
| 20260903031402 | 90 | 56 | 1.0 | 3.0 | 0.00 | 0.00 | 0.00 | 15 | 1009.7 |
| 20260903030903 | 91 | 2 | 1.0 | 3.0 | 0.00 | 0.00 | 0.00 | 14 | 1009.5 |
| 20260903030402 | 91 | 162 | 1.0 | 5.0 | 0.00 | 0.00 | 0.00 | 14 | 1009.4 |
| 20260903025902 | 92 | 108 | 1.0 | 5.0 | 0.00 | 0.00 | 0.00 | 13 | 1009.4 |
| 20260903025401 | 92 | 88 | 1.0 | 4.0 | 0.00 | 0.00 | 0.00 | 13 | 1009.3 |
| 20260903024902 | 93 | 95 | 2.0 | 5.0 | 0.00 | 0.00 | 0.00 | 13 | 1009.3 |
| 20260903024631 | 93 | 89 | 3.0 | 6.0 | 0.00 | 0.00 | 0.00 | 13 | 1009.2 |
| 20260903023901 | 93 | 169 | 2.0 | 6.0 | 0.00 | 0.00 | 0.00 | 12 | 1009.2 |
| 20260903023402 | 94 | 187 | 1.0 | 4.0 | 0.00 | 0.00 | 0.00 | 12 | 1009.1 |
| 20260903022900 | 94 | 184 | 2.0 | 8.0 | 0.00 | 0.00 | 0.00 | 12 | 1009.0 |
| 20260903022401 | 94 | 172 | 3.0 | 8.0 | 0.00 | 0.00 | 0.00 | 12 | 1009.0 |
| 20260903021902 | 95 | 256 | 4.0 | 9.0 | 0.00 | 0.00 | 0.00 | 11 | 1009.0 |
| 20260903021400 | 95 | 236 | 3.0 | 9.0 | 0.00 | 0.00 | 0.00 | 10 | 1009.0 |
| 20260903020901 | 95 | 250 | 1.0 | 9.0 | 0.00 | 0.00 | 0.00 | 10 | 1009.0 |
| 20260903020402 | 95 | 256 | 2.0 | 8.0 | 0.00 | 0.00 | 0.00 | 10 | 1009.0 |
| 20260903015904 | 96 | 195 | 3.0 | 8.0 | 0.00 | 0.00 | 0.00 | 9 | 1009.0 |
| 20260903015404 | 96 | 224 | 3.0 | 8.0 | 0.00 | 0.00 | 0.00 | 9 | 1008.9 |
| 20260903014903 | 96 | 272 | 2.0 | 5.0 | 0.00 | 0.00 | 0.00 | 9 | 1009.1 |
| 20260903013904 | 97 | 252 | 3.0 | 7.0 | 0.00 | 0.00 | 0.00 | 9 | 1009.0 |
| 20260903013402 | 97 | 315 | 3.0 | 7.0 | 0.00 | 0.00 | 0.00 | 9 | 1009.0 |
| 20260903013129 | 98 | 349 | 3.0 | 7.0 | 0.00 | 0.00 | 0.00 | 10 | 1008.9 |
| 20260903012404 | 98 | 318 | 3.0 | 10.0 | 0.00 | 0.00 | 0.00 | 9 | 1008.9 |
| 20260903011902 | 99 | 320 | 3.0 | 10.0 | 0.00 | 0.00 | 0.00 | 9 | 1009.0 |
| 20260903011403 | 100 | 352 | 3.0 | 7.0 | 0.00 | 0.00 | 0.00 | 10 | 1008.9 |
| 20260903010904 | 100 | 326 | 4.0 | 8.0 | 0.00 | 0.00 | 0.00 | 9 | 1008.9 |
| 20260903010403 | 100 | 329 | 3.0 | 9.0 | 0.00 | 0.00 | 0.00 | 9 | 1008.8 |
| 20260903005902 | 100 | 340 | 3.0 | 9.0 | 0.00 | 0.00 | 0.00 | 10 | 1008.9 |
| 20260903005403 | 101 | 296 | 4.0 | 8.0 | 0.00 | 0.00 | 0.00 | 9 | 1008.9 |
| 20260903004903 | 101 | 302 | 4.0 | 7.0 | 0.00 | 0.00 | 0.00 | 9 | 1008.9 |
| 20260903004402 | 102 | 335 | 4.0 | 7.0 | 0.00 | 0.00 | 0.00 | 9 | 1008.9 |
| 20260903003402 | 102 | 250 | 4.0 | 12.0 | 0.00 | 0.00 | 0.00 | 9 | 1008.8 |
| 20260903002904 | 102 | 257 | 2.0 | 8.0 | 0.00 | 0.00 | 0.00 | 8 | 1008.7 |
| 20260903002404 | 102 | 210 | 2.0 | 6.0 | 0.00 | 0.00 | 0.00 | 8 | 1008.7 |
| 20260903001903 | 102 | 209 | 1.0 | 5.0 | 0.00 | 0.00 | 0.00 | 11 | 1008.8 |
| 20260903001134 | 102 | 29 | 0.0 | 4.0 | 0.00 | 0.00 | 0.00 | 10 | 1008.9 |
| 20260902235903 | 103 | 323 | 0.0 | 2.0 | 0.00 | 0.00 | 0.00 | 11 | 1009.1 |
| 20260902235403 | 102 | 95 | 0.0 | 3.0 | 0.00 | 0.00 | 0.00 | 10 | 1009.1 |
| 20260902234903 | 102 | 47 | 0.0 | 3.0 | 0.00 | 0.00 | 0.00 | 10 | 1009.1 |
| 20260902234402 | 103 | 299 | 0.0 | 2.0 | 0.00 | 0.00 | 0.00 | 10 | 1009.1 |
| 20260902233903 | 103 | 115 | 1.0 | 6.0 | 0.00 | 0.00 | 0.00 | 10 | 1009.1 |
| 20260902233402 | 102 | 150 | 2.0 | 7.0 | 0.00 | 0.00 | 0.00 | 10 | 1009.2 |
| 20260902233127 | 102 | 158 | 2.0 | 7.0 | 0.00 | 0.00 | 0.00 | 11 | 1009.1 |
| 20260902232402 | 101 | 81 | 2.0 | 5.0 | 0.00 | 0.00 | 0.00 | 11 | 1009.3 |
| 20260902231904 | 101 | 77 | 1.0 | 5.0 | 0.00 | 0.00 | 0.00 | 10 | 1009.4 |
| 20260902231402 | 101 | 326 | 1.0 | 3.0 | 0.00 | 0.00 | 0.00 | 10 | 1009.3 |
| 20260902230902 | 101 | 255 | 1.0 | 5.0 | 0.00 | 0.00 | 0.00 | 10 | 1009.4 |
| 20260902230404 | 101 | 259 | 1.0 | 5.0 | 0.00 | 0.00 | 0.00 | 11 | 1009.5 |
| 20260902225903 | 101 | 335 | 2.0 | 6.0 | 0.00 | 0.00 | 0.00 | 11 | 1009.6 |
| 20260902225405 | 101 | 91 | 2.0 | 6.0 | 0.00 | 0.00 | 0.00 | 10 | 1009.7 |
| 20260902224403 | 101 | 87 | 2.0 | 6.0 | 0.00 | 0.00 | 0.00 | 10 | 1009.8 |
| 20260902223902 | 101 | 116 | 2.0 | 6.0 | 0.00 | 0.00 | 0.00 | 10 | 1009.8 |
| 20260902223402 | 101 | 66 | 2.0 | 6.0 | 0.00 | 0.00 | 0.00 | 11 | 1009.9 |
| 20260902222903 | 101 | 119 | 2.0 | 5.0 | 0.00 | 0.00 | 0.00 | 10 | 1009.9 |
| 20260902222631 | 102 | 102 | 2.0 | 6.0 | 0.00 | 0.00 | 0.00 | 10 | 1009.9 |
| 20260902221902 | 102 | 216 | 3.0 | 13.0 | 0.00 | 0.00 | 0.00 | 11 | 1010.1 |
| 20260902221402 | 101 | 120 | 2.0 | 13.0 | 0.00 | 0.00 | 0.00 | 12 | 1010.2 |
| 20260902220902 | 100 | 75 | 0.0 | 2.0 | 0.00 | 0.00 | 0.00 | 11 | 1010.2 |
| 20260902220402 | 100 | 106 | 2.0 | 6.0 | 0.00 | 0.00 | 0.00 | 12 | 1010.3 |
| 20260902215900 | 99 | 250 | 3.0 | 6.0 | 0.00 | 0.00 | 0.00 | 11 | 1010.4 |
| 20260902215401 | 100 | 12 | 3.0 | 6.0 | 0.00 | 0.00 | 0.00 | 11 | 1010.4 |
| 20260902214901 | 100 | 4 | 1.0 | 4.0 | 0.00 | 0.00 | 0.00 | 13 | 1010.4 |
| 20260902214401 | 100 | 8 | 1.0 | 4.0 | 0.00 | 0.00 | 0.00 | 11 | 1010.4 |
| 20260902213901 | 100 | 179 | 2.0 | 6.0 | 0.00 | 0.00 | 0.00 | 12 | 1010.6 |
| 20260902213401 | 100 | 39 | 2.0 | 6.0 | 0.00 | 0.00 | 0.00 | 12 | 1010.8 |
| 20260902212901 | 100 | 34 | 1.0 | 5.0 | 0.00 | 0.00 | 0.00 | 12 | 1010.7 |
| 20260902212401 | 100 | 239 | 1.0 | 4.0 | 0.00 | 0.00 | 0.00 | 11 | 1010.9 |
| 20260902212133 | 101 | 116 | 1.0 | 4.0 | 0.00 | 0.00 | 0.00 | 10 | 1010.9 |
| 20260902211403 | 101 | 52 | 1.0 | 4.0 | 0.00 | 0.00 | 0.00 | 10 | 1011.0 |
| 20260902210902 | 100 | 208 | 1.0 | 4.0 | 0.00 | 0.00 | 0.00 | 10 | 1011.1 |
| 20260902210402 | 100 | 219 | 2.0 | 5.0 | 0.00 | 0.00 | 0.00 | 10 | 1011.1 |
| 20260902205903 | 99 | 35 | 1.0 | 5.0 | 0.00 | 0.00 | 0.00 | 11 | 1011.2 |
| 20260902205400 | 100 | 70 | 0.0 | 2.0 | 0.00 | 0.00 | 0.00 | 13 | 1011.2 |
| 20260902204853 | 99 | 72 | 1.0 | 5.0 | 0.00 | 0.00 | 0.00 | 13 | 1011.3 |
| 20260902204347 | 99 | 136 | 1.0 | 5.0 | 0.00 | 0.00 | 0.00 | 14 | 1011.4 |
| 20260902203841 | 98 | 161 | 1.0 | 4.0 | 0.00 | 0.00 | 0.00 | 12 | 1011.6 |
| 20260902203335 | 98 | 113 | 1.0 | 4.0 | 0.00 | 0.00 | 0.00 | 13 | 1011.6 |
| 20260902202833 | 98 | 51 | 1.0 | 6.0 | 0.00 | 0.00 | 0.00 | 13 | 1011.7 |
| 20260902202334 | 98 | 42 | 1.0 | 6.0 | 0.00 | 0.00 | 0.00 | 13 | 1011.7 |
| 20260902201831 | 97 | 46 | 2.0 | 6.0 | 0.00 | 0.00 | 0.00 | 13 | 1011.9 |
| 20260902201603 | 97 | 86 | 3.0 | 7.0 | 0.00 | 0.00 | 0.00 | 13 | 1012.0 |
| 20260902201054 | 97 | 357 | 3.0 | 7.0 | 0.00 | 0.00 | 0.00 | 13 | 1011.9 |
| 20260902195831 | 97 | 53 | 1.0 | 7.0 | 0.00 | 0.00 | 0.00 | 12 | 1012.2 |
| 20260902195330 | 98 | 68 | 1.0 | 5.0 | 0.00 | 0.00 | 0.00 | 14 | 1012.1 |
| 20260902194830 | 98 | 343 | 1.0 | 5.0 | 0.00 | 0.00 | 0.00 | 14 | 1012.2 |
| 20260902194331 | 97 | 137 | 1.0 | 4.0 | 0.00 | 0.00 | 0.00 | 13 | 1012.3 |
| 20260902193830 | 96 | 77 | 2.0 | 5.0 | 0.00 | 0.00 | 0.00 | 15 | 1012.3 |
| 20260902193559 | 96 | 63 | 2.0 | 5.0 | 0.00 | 0.00 | 0.00 | 14 | 1012.4 |
| 20260902192829 | 96 | 63 | 1.0 | 4.0 | 0.00 | 0.00 | 0.00 | 14 | 1012.4 |
| 20260902192329 | 96 | 65 | 1.0 | 5.0 | 0.00 | 0.00 | 0.00 | 13 | 1012.5 |
| 20260902191830 | 96 | 34 | 2.0 | 5.0 | 0.00 | 0.00 | 0.00 | 13 | 1012.4 |
| 20260902191329 | 96 | 41 | 2.0 | 7.0 | 0.00 | 0.00 | 0.00 | 12 | 1012.5 |
| 20260902190829 | 97 | 77 | 2.0 | 7.0 | 0.00 | 0.00 | 0.00 | 12 | 1012.4 |
| 20260902190332 | 96 | 153 | 1.0 | 5.0 | 0.00 | 0.00 | 0.00 | 13 | 1012.5 |
| 20260902185830 | 95 | 32 | 2.0 | 5.0 | 0.00 | 0.00 | 0.00 | 12 | 1012.7 |
| 20260902185329 | 95 | 70 | 2.0 | 5.0 | 0.00 | 0.00 | 0.00 | 12 | 1012.8 |
| 20260902184830 | 95 | 344 | 1.0 | 4.0 | 0.00 | 0.00 | 0.00 | 14 | 1012.8 |
| 20260902184331 | 95 | 79 | 1.0 | 5.0 | 0.00 | 0.00 | 0.00 | 13 | 1012.9 |
| 20260902183830 | 95 | 68 | 2.0 | 5.0 | 0.00 | 0.00 | 0.00 | 14 | 1013.0 |
| 20260902183328 | 95 | 319 | 1.0 | 4.0 | 0.00 | 0.00 | 0.00 | 14 | 1013.0 |
| 20260902182830 | 95 | 51 | 1.0 | 3.0 | 0.00 | 0.00 | 0.00 | 16 | 1012.9 |
| 20260902182329 | 94 | 187 | 0.0 | 3.0 | 0.00 | 0.00 | 0.00 | 14 | 1013.0 |
| 20260902181832 | 94 | 324 | 1.0 | 5.0 | 0.00 | 0.00 | 0.00 | 16 | 1013.2 |
| 20260902181330 | 94 | 113 | 1.0 | 5.0 | 0.00 | 0.00 | 0.00 | 14 | 1013.1 |
| 20260902180830 | 94 | 23 | 1.0 | 5.0 | 0.00 | 0.00 | 0.00 | 15 | 1013.2 |
| 20260902180329 | 93 | 58 | 2.0 | 7.0 | 0.00 | 0.00 | 0.00 | 15 | 1013.2 |
| 20260902175829 | 93 | 49 | 1.0 | 7.0 | 0.00 | 0.00 | 0.00 | 15 | 1013.2 |
| 20260902175329 | 94 | 56 | 2.0 | 7.0 | 0.00 | 0.00 | 0.00 | 16 | 1013.3 |
| 20260902174830 | 93 | 122 | 2.0 | 7.0 | 0.00 | 0.00 | 0.00 | 15 | 1013.3 |
| 20260902174558 | 93 | 60 | 2.0 | 5.0 | 0.00 | 0.00 | 0.00 | 16 | 1013.2 |
| 20260902174056 | 93 | 63 | 2.0 | 10.0 | 0.00 | 0.00 | 0.00 | 17 | 1013.2 |
| 20260902173322 | 92 | 87 | 2.0 | 10.0 | 0.00 | 0.00 | 0.00 | 17 | 1013.2 |
| 20260902172816 | 92 | 128 | 2.0 | 7.0 | 0.00 | 0.00 | 0.00 | 17 | 1013.2 |
| 20260902172309 | 92 | 63 | 3.0 | 7.0 | 0.00 | 0.00 | 0.00 | 18 | 1013.3 |
| 20260902171808 | 91 | 86 | 3.0 | 6.0 | 0.00 | 0.00 | 0.00 | 18 | 1013.3 |
| 20260902171532 | 91 | 134 | 2.0 | 6.0 | 0.00 | 0.00 | 0.00 | 18 | 1013.3 |
| 20260902171030 | 91 | 96 | 2.0 | 7.0 | 0.00 | 0.00 | 0.00 | 17 | 1013.2 |
| 20260902170307 | 91 | 108 | 2.0 | 7.0 | 0.00 | 0.00 | 0.00 | 18 | 1013.1 |
| 20260902165807 | 91 | 79 | 2.0 | 7.0 | 0.00 | 0.00 | 0.00 | 19 | 1013.2 |
| 20260902165309 | 90 | 108 | 2.0 | 6.0 | 0.00 | 0.00 | 0.00 | 20 | 1013.1 |
| 20260902164806 | 90 | 81 | 2.0 | 6.0 | 0.00 | 0.00 | 0.00 | 21 | 1013.1 |
| 20260902164306 | 90 | 39 | 1.0 | 5.0 | 0.00 | 0.00 | 0.00 | 20 | 1013.0 |
| 20260902163804 | 89 | 97 | 1.0 | 3.0 | 0.00 | 0.00 | 0.00 | 22 | 1013.1 |
| 20260902163304 | 89 | 85 | 1.0 | 4.0 | 0.00 | 0.00 | 0.00 | 21 | 1013.1 |
| 20260902162804 | 88 | 70 | 1.0 | 6.0 | 0.00 | 0.00 | 0.00 | 20 | 1012.9 |
| 20260902162307 | 89 | 70 | 1.0 | 6.0 | 0.00 | 0.00 | 0.00 | 19 | 1012.9 |
| 20260902161802 | 88 | 105 | 1.0 | 5.0 | 0.00 | 0.00 | 0.00 | 20 | 1012.9 |
| 20260902161530 | 87 | 53 | 1.0 | 5.0 | 0.00 | 0.00 | 0.00 | 20 | 1012.9 |
| 20260902160303 | 87 | 70 | 1.0 | 4.0 | 0.00 | 0.00 | 0.00 | 21 | 1013.0 |
| 20260902155803 | 87 | 149 | 1.0 | 4.0 | 0.00 | 0.00 | 0.00 | 23 | 1013.0 |
| 20260902155259 | 87 | 103 | 1.0 | 2.0 | 0.00 | 0.00 | 0.00 | 23 | 1013.0 |
| 20260902154750 | 86 | 186 | 0.0 | 2.0 | 0.00 | 0.00 | 0.00 | 23 | 1013.0 |
| 20260902154245 | 86 | 113 | 0.0 | 2.0 | 0.00 | 0.00 | 0.00 | 26 | 1013.0 |
| 20260902153745 | 85 | 181 | 0.0 | 3.0 | 0.00 | 0.00 | 0.00 | 27 | 1012.9 |
| 20260902153242 | 85 | 172 | 1.0 | 3.0 | 0.00 | 0.00 | 0.00 | 27 | 1012.8 |
| 20260902152742 | 84 | 209 | 1.0 | 3.0 | 0.00 | 0.00 | 0.00 | 29 | 1012.9 |
| 20260902152241 | 84 | 168 | 1.0 | 3.0 | 0.00 | 0.00 | 0.00 | 30 | 1012.9 |
| 20260902152009 | 83 | 191 | 1.0 | 3.0 | 0.00 | 0.00 | 0.00 | 30 | 1013.0 |
| 20260902151240 | 83 | 163 | 1.0 | 3.0 | 0.00 | 0.00 | 0.00 | 32 | 1013.0 |
| 20260902150740 | 82 | 182 | 0.0 | 0.0 | 0.00 | 0.00 | 0.00 | 31 | 1012.9 |
| 20260902150240 | 81 | 180 | 0.0 | 0.0 | 0.00 | 0.00 | 0.00 | 31 | 1012.9 |
| 20260902145738 | 80 | 180 | 0.0 | 0.0 | 0.00 | 0.00 | 0.00 | 35 | 1012.9 |
| 20260902145236 | 80 | 181 | 0.0 | 0.0 | 0.00 | 0.00 | 0.00 | 33 | 1012.9 |
| 20260902144737 | 78 | 184 | 0.0 | 0.0 | 0.00 | 0.00 | 0.00 | 34 | 1012.9 |
| 20260902144237 | 77 | 184 | 0.0 | 0.0 | 0.00 | 0.00 | 0.00 | 35 | 1012.8 |
| 20260902144003 | 77 | 153 | 0.0 | 1.0 | 0.00 | 0.00 | 0.00 | 37 | 1012.8 |
| 20260902143236 | 77 | 153 | 0.0 | 1.0 | 0.00 | 0.00 | 0.00 | 37 | 1012.8 |
| 20260902142736 | 76 | 179 | 1.0 | 2.0 | 0.00 | 0.00 | 0.00 | 36 | 1012.9 |
| 20260902142236 | 76 | 159 | 1.0 | 3.0 | 0.00 | 0.00 | 0.00 | 35 | 1012.9 |
| 20260902141954 | 76 | 205 | 1.0 | 3.0 | 0.00 | 0.00 | 0.00 | 36 | 1012.9 |
| 20260902141232 | 76 | 164 | 0.0 | 1.0 | 0.00 | 0.00 | 0.00 | 36 | 1012.9 |
| 20260902140731 | 75 | 210 | 0.0 | 1.0 | 0.00 | 0.00 | 0.00 | 37 | 1012.9 |
| 20260902140232 | 74 | 183 | 0.0 | 0.0 | 0.00 | 0.00 | 0.00 | 39 | 1012.8 |
| 20260902135732 | 73 | 184 | 0.0 | 1.0 | 0.00 | 0.00 | 0.00 | 39 | 1012.9 |
| 20260902135459 | 72 | 176 | 0.0 | 1.0 | 0.00 | 0.00 | 0.00 | 40 | 1012.8 |
| 20260902134729 | 71 | 189 | 0.0 | 1.0 | 0.00 | 0.00 | 0.00 | 41 | 1012.9 |
| 20260902134232 | 71 | 174 | 0.0 | 1.0 | 0.00 | 0.00 | 0.00 | 41 | 1012.8 |
| 20260902133730 | 71 | 179 | 0.0 | 2.0 | 0.00 | 0.00 | 0.00 | 41 | 1012.7 |
| 20260902133229 | 71 | 183 | 1.0 | 2.0 | 0.00 | 0.00 | 0.00 | 41 | 1012.7 |
| 20260902132726 | 71 | 143 | 0.0 | 3.0 | 0.00 | 0.00 | 0.00 | 41 | 1012.7 |
| 20260902132225 | 71 | 169 | 0.0 | 3.0 | 0.00 | 0.00 | 0.00 | 42 | 1012.8 |
| 20260902131955 | 71 | 166 | 0.0 | 1.0 | 0.00 | 0.00 | 0.00 | 40 | 1012.8 |
| 20260902131226 | 71 | 166 | 0.0 | 2.0 | 0.00 | 0.00 | 0.00 | 41 | 1012.7 |
| 20260902130723 | 71 | 167 | 0.0 | 2.0 | 0.00 | 0.00 | 0.00 | 42 | 1012.7 |
| 20260902130224 | 72 | 206 | 0.0 | 2.0 | 0.00 | 0.00 | 0.00 | 41 | 1012.7 |
| 20260902125725 | 72 | 173 | 0.0 | 1.0 | 0.00 | 0.00 | 0.00 | 41 | 1012.7 |
| 20260902125223 | 72 | 219 | 0.0 | 1.0 | 0.00 | 0.00 | 0.00 | 40 | 1012.6 |
| 20260902124722 | 72 | 219 | 0.0 | 1.0 | 0.00 | 0.00 | 0.00 | 40 | 1012.6 |
| 20260902123718 | 72 | 226 | 0.0 | 1.0 | 0.00 | 0.00 | 0.00 | 39 | 1012.6 |
| 20260902123218 | 72 | 224 | 0.0 | 1.0 | 0.00 | 0.00 | 0.00 | 43 | 1012.5 |
| 20260902122719 | 72 | 96 | 0.0 | 0.0 | 0.00 | 0.00 | 0.00 | 39 | 1012.4 |
| 20260902122218 | 73 | 96 | 0.0 | 1.0 | 0.00 | 0.00 | 0.00 | 40 | 1012.5 |
| 20260902121717 | 73 | 103 | 0.0 | 1.0 | 0.00 | 0.00 | 0.00 | 37 | 1012.4 |
| 20260902121219 | 74 | 116 | 0.0 | 1.0 | 0.00 | 0.00 | 0.00 | 37 | 1012.3 |
| 20260902120718 | 74 | 169 | 0.0 | 1.0 | 0.00 | 0.00 | 0.00 | 37 | 1012.5 |
| 20260902120219 | 74 | 169 | 1.0 | 3.0 | 0.00 | 0.00 | 0.00 | 37 | 1012.4 |
| 20260902115718 | 74 | 167 | 1.0 | 3.0 | 0.00 | 0.00 | 0.00 | 37 | 1012.4 |
| 20260902115437 | 73 | 171 | 0.0 | 3.0 | 0.00 | 0.00 | 0.00 | 37 | 1012.5 |
| 20260902114713 | 73 | 200 | 0.0 | 2.0 | 0.00 | 0.00 | 0.00 | 39 | 1012.4 |
| 20260902114213 | 73 | 221 | 0.0 | 2.0 | 0.00 | 0.00 | 0.00 | 38 | 1012.4 |
| 20260902113713 | 73 | 191 | 0.0 | 1.0 | 0.00 | 0.00 | 0.00 | 39 | 1012.4 |
| 20260902113214 | 74 | 195 | 0.0 | 1.0 | 0.00 | 0.00 | 0.00 | 39 | 1012.3 |
| 20260902112944 | 74 | 169 | 0.0 | 1.0 | 0.00 | 0.00 | 0.00 | 38 | 1012.2 |
| 20260902112215 | 74 | 160 | 0.0 | 1.0 | 0.00 | 0.00 | 0.00 | 38 | 1012.3 |
| 20260902111716 | 74 | 214 | 1.0 | 2.0 | 0.00 | 0.00 | 0.00 | 37 | 1012.3 |
| 20260902111215 | 74 | 209 | 1.0 | 2.0 | 0.00 | 0.00 | 0.00 | 38 | 1012.4 |
| 20260902110442 | 74 | 160 | 0.0 | 1.0 | 0.00 | 0.00 | 0.00 | 38 | 1012.4 |
| 20260902105937 | 74 | 184 | 0.0 | 2.0 | 0.00 | 0.00 | 0.00 | 38 | 1012.3 |
| 20260902105453 | 74 | 227 | 1.0 | 3.0 | 0.00 | 0.00 | 0.00 | 38 | 1012.4 |
| 20260902104710 | 74 | 168 | 1.0 | 3.0 | 0.00 | 0.00 | 0.00 | 39 | 1012.4 |
| 20260902104210 | 74 | 184 | 0.0 | 2.0 | 0.00 | 0.00 | 0.00 | 39 | 1012.4 |
| 20260902103709 | 74 | 212 | 0.0 | 2.0 | 0.00 | 0.00 | 0.00 | 39 | 1012.4 |
| 20260902103211 | 74 | 212 | 0.0 | 2.0 | 0.00 | 0.00 | 0.00 | 39 | 1012.5 |
| 20260902102710 | 74 | 207 | 0.0 | 2.0 | 0.00 | 0.00 | 0.00 | 40 | 1012.5 |
| 20260902102206 | 74 | 166 | 0.0 | 2.0 | 0.00 | 0.00 | 0.00 | 40 | 1012.3 |
| 20260902101705 | 74 | 179 | 0.0 | 2.0 | 0.00 | 0.00 | 0.00 | 39 | 1012.3 |
| 20260902101206 | 74 | 240 | 0.0 | 1.0 | 0.00 | 0.00 | 0.00 | 39 | 1012.4 |
| 20260902100706 | 74 | 207 | 0.0 | 1.0 | 0.00 | 0.00 | 0.00 | 39 | 1012.5 |
| 20260902100206 | 74 | 210 | 0.0 | 1.0 | 0.00 | 0.00 | 0.00 | 40 | 1012.6 |
| 20260902095706 | 74 | 203 | 0.0 | 1.0 | 0.00 | 0.00 | 0.00 | 39 | 1012.5 |
| 20260902095205 | 75 | 206 | 0.0 | 1.0 | 0.00 | 0.00 | 0.00 | 38 | 1012.6 |
| 20260902094706 | 75 | 206 | 0.0 | 1.0 | 0.00 | 0.00 | 0.00 | 38 | 1012.6 |
| 20260902094206 | 75 | 179 | 0.0 | 2.0 | 0.00 | 0.00 | 0.00 | 38 | 1012.5 |
| 20260902093706 | 76 | 212 | 0.0 | 2.0 | 0.00 | 0.00 | 0.00 | 38 | 1012.5 |
| 20260902093435 | 76 | 205 | 0.0 | 2.0 | 0.00 | 0.00 | 0.00 | 38 | 1012.5 |
| 20260902092705 | 76 | 200 | 0.0 | 2.0 | 0.00 | 0.00 | 0.00 | 38 | 1012.5 |
| 20260902092205 | 76 | 174 | 1.0 | 3.0 | 0.00 | 0.00 | 0.00 | 38 | 1012.5 |
| 20260902091936 | 76 | 181 | 1.0 | 3.0 | 0.00 | 0.00 | 0.00 | 38 | 1012.6 |
| 20260902091205 | 76 | 195 | 0.0 | 2.0 | 0.00 | 0.00 | 0.00 | 39 | 1012.6 |
| 20260902090933 | 76 | 216 | 0.0 | 1.0 | 0.00 | 0.00 | 0.00 | 39 | 1012.6 |
| 20260902090205 | 76 | 160 | 0.0 | 3.0 | 0.00 | 0.00 | 0.00 | 39 | 1012.6 |
| 20260902085706 | 76 | 189 | 0.0 | 3.0 | 0.00 | 0.00 | 0.00 | 39 | 1012.6 |